Torna al catalogo

FENGYUN 1C DEB

AttivoSSO
NORAD 30038·DEBRIS·🇨🇳 China

Lanciato May 10, 1999 da Taiyuan Satellite Launch Center

Loading…

Prossimi Passaggi (prossime 24 ore)

TLE

AggiornatoSource: Space-Track

Epoca: Sep 13, 2026, 21:41 UTC

1 30038U 99025NP  26256.90408449  .00001178  00000-0  26708-3 0  9991
2 30038  98.3927 243.9031 0254799 355.7185  60.6547 14.39980775 28513

Traccia FENGYUN 1C DEB in tempo reale con AllMySat

Download on the App Store